Retour au catalogue

NOAA 16 DEB

ActifSSO
NORAD 42388·DEBRIS·🇺🇸 United States

Lancé Sep 21, 2000 depuis Vandenberg Space Force Base

Loading…

Prochains Passages (prochaines 24 heures)

TLE

FraisSource: Space-Track

Époque: Sep 13, 2026, 01:15 UTC

1 42388U 00055SG  26256.05224770  .00002276  00000-0  86842-3 0  9991
2 42388  98.5989 294.9278 0015498  44.9757 315.2678 14.31695313546754

Suivez NOAA 16 DEB en temps réel avec AllMySat

Download on the App Store